DW7287 Weather Reports


Display with metric or nautical units.
time (UTC)temp
F
wind
direction
speed
MPH
gust
MPH
rain 1hr
in
rain 24hr
in
rain mn
in
humidity
%
barometer
mb
20260903053103 72 0 0.0 0.0 0.00 0.00 0.00 94 1017.6
20260903051615 72 0 0.0 0.0 0.00 0.00 0.00 94 1017.5
20260903050108 73 0 0.0 0.0 0.00 0.00 0.00 94 1017.4
20260903044601 73 0 0.0 0.0 0.00 0.00 0.00 94 1017.4
20260903043207 73 0 0.0 0.0 0.00 0.00 0.00 93 1017.5
20260903041608 73 0 0.0 0.0 0.00 0.00 0.00 94 1017.5
20260903040104 73 0 0.0 0.0 0.00 0.00 0.00 94 1017.8
20260903034558 74 0 0.0 0.0 0.00 0.00 0.00 94 1017.7
20260903033104 74 0 0.0 0.0 0.00 0.00 0.00 94 1017.7
20260903031603 74 0 0.0 0.0 0.00 0.00 0.00 93 1017.8
20260903024605 74 0 0.0 0.0 0.00 0.00 0.00 92 1018.0
20260903023101 75 0 0.0 0.0 0.00 0.00 0.00 92 1018.0
20260903021600 75 0 0.0 0.0 0.00 0.00 0.00 92 1018.1
20260903020104 75 0 0.0 0.0 0.00 0.00 0.00 90 1018.2
20260903014602 76 0 0.0 0.0 0.00 0.00 0.00 89 1018.0
20260903013109 76 0 0.0 0.0 0.00 0.00 0.00 89 1018.0
20260903011603 76 0 0.0 0.0 0.00 0.00 0.00 88 1017.9
20260903010106 77 0 0.0 0.0 0.00 0.00 0.00 86 1017.9
20260903004606 78 0 0.0 0.0 0.00 0.00 0.00 84 1017.9
20260903003103 79 0 0.0 0.0 0.00 0.00 0.00 81 1017.6
20260903001602 80 0 0.0 0.0 0.00 0.00 0.00 79 1017.5
20260903000100 81 0 0.0 0.0 0.00 0.00 0.00 78 1017.5
20260902234615 82 0 0.0 0.0 0.00 0.00 0.00 76 1017.4
20260902233102 82 0 0.0 1.0 0.00 0.00 0.00 74 1017.4
20260902231617 84 0 0.0 1.0 0.00 0.00 0.00 71 1017.4
20260902230106 85 0 0.0 1.0 0.00 0.00 0.00 68 1017.6
20260902224611 86 0 0.0 1.0 0.00 0.00 0.00 65 1017.6
20260902223102 87 0 0.0 1.0 0.00 0.00 0.00 64 1017.7
20260902221605 88 0 0.0 2.0 0.00 0.00 0.00 62 1017.6
20260902220109 89 0 0.0 2.0 0.00 0.00 0.00 62 1017.7
20260902214603 89 0 0.0 1.0 0.00 0.00 0.00 61 1017.7
20260902213125 89 0 0.0 2.0 0.00 0.00 0.00 61 1017.7
20260902211605 89 145 0.0 3.0 0.00 0.00 0.00 62 1017.6
20260902210059 89 182 0.0 3.0 0.00 0.00 0.00 62 1017.7
20260902204601 89 342 0.0 4.0 0.00 0.00 0.00 60 1018.0
20260902203108 89 261 0.0 2.0 0.00 0.00 0.00 63 1018.2
20260902201608 90 213 2.0 5.0 0.00 0.00 0.00 60 1018.4
20260902200134 89 272 0.0 3.0 0.00 0.00 0.00 61 1018.5
20260902194609 89 261 0.0 5.0 0.00 0.00 0.00 60 1018.6
20260902193103 90 0 0.0 2.0 0.00 0.00 0.00 62 1018.7
20260902191604 90 292 0.0 4.0 0.00 0.00 0.00 61 1018.9
20260902190114 90 0 1.0 4.0 0.00 0.00 0.00 59 1018.9
20260902184608 91 314 1.0 5.0 0.00 0.00 0.00 58 1019.0
20260902183108 91 0 0.0 7.0 0.00 0.00 0.00 60 1019.1
20260902181605 91 47 0.0 4.0 0.00 0.00 0.00 59 1018.9
20260902180133 92 258 1.0 4.0 0.00 0.00 0.00 59 1019.1
20260902174611 91 98 1.0 5.0 0.00 0.00 0.00 59 1019.3
20260902173105 91 0 2.0 5.0 0.00 0.00 0.00 59 1019.4
20260902171608 91 44 1.0 4.0 0.00 0.00 0.00 61 1019.6
20260902170107 91 0 1.0 6.0 0.00 0.00 0.00 62 1019.7
20260902164606 91 149 1.0 5.0 0.00 0.00 0.00 64 1020.0
20260902163108 91 78 1.0 4.0 0.00 0.00 0.00 63 1020.3
20260902161606 90 0 1.0 8.0 0.00 0.00 0.00 63 1020.3
20260902160107 90 310 2.0 6.0 0.00 0.00 0.00 64 1020.6
20260902154603 89 360 1.0 5.0 0.00 0.00 0.00 65 1020.7
20260902153057 89 313 1.0 4.0 0.00 0.00 0.00 65 1020.8
20260902151602 88 255 0.0 3.0 0.00 0.00 0.00 68 1020.9
20260902150105 87 42 0.0 4.0 0.00 0.00 0.00 68 1020.8
20260902144603 87 257 2.0 4.0 0.00 0.00 0.00 69 1020.6
20260902143105 86 0 0.0 3.0 0.00 0.00 0.00 71 1020.5
20260902141615 85 288 0.0 3.0 0.00 0.00 0.00 73 1020.5
20260902140103 83 286 0.0 2.0 0.00 0.00 0.00 75 1020.5
20260902134601 82 269 0.0 3.0 0.00 0.00 0.00 80 1020.5
20260902133059 80 0 0.0 2.0 0.00 0.00 0.00 86 1020.4
20260902131606 77 0 0.0 3.0 0.00 0.00 0.00 90 1020.2
20260902124602 74 90 0.0 2.0 0.00 0.00 0.00 97 1020.0
20260902123057 72 0 0.0 1.0 0.00 0.00 0.00 97 1019.9
20260902121605 71 0 0.0 1.0 0.00 0.00 0.00 97 1019.9
20260902120104 70 0 0.0 1.0 0.00 0.00 0.00 96 1020.0
20260902114600 69 0 0.0 0.0 0.00 0.00 0.00 96 1019.9
20260902113112 69 0 0.0 0.0 0.00 0.00 0.00 96 1019.6
20260902111603 69 0 0.0 0.0 0.00 0.00 0.00 96 1019.6
20260902110101 69 0 0.0 0.0 0.00 0.00 0.00 96 1019.6
20260902104559 69 0 0.0 0.0 0.00 0.00 0.00 96 1019.5
20260902103058 69 0 0.0 0.0 0.00 0.00 0.00 96 1019.5
20260902101620 69 0 0.0 0.0 0.00 0.00 0.00 96 1019.5
20260902100100 69 0 0.0 1.0 0.00 0.00 0.00 96 1019.4
20260902094601 69 26 0.0 0.0 0.00 0.00 0.00 96 1019.4
20260902093058 69 0 0.0 1.0 0.00 0.00 0.00 96 1019.4
20260902091606 69 0 0.0 0.0 0.00 0.00 0.00 96 1019.3
20260902090127 70 0 0.0 0.0 0.00 0.00 0.00 96 1019.3
20260902084603 70 0 0.0 0.0 0.00 0.00 0.00 96 1019.1
20260902083100 70 0 0.0 1.0 0.00 0.00 0.00 96 1019.0
20260902081604 70 28 0.0 0.0 0.00 0.00 0.00 96 1019.1
20260902080111 70 0 0.0 1.0 0.00 0.00 0.00 96 1019.0
20260902074600 70 0 0.0 0.0 0.00 0.00 0.00 95 1019.0
20260902073100 70 0 0.0 0.0 0.00 0.00 0.00 95 1019.0
20260902071603 70 0 0.0 0.0 0.00 0.00 0.00 95 1018.9
20260902070107 70 0 0.0 0.0 0.00 0.00 0.00 95 1018.8
20260902064607 71 0 0.0 1.0 0.00 0.00 0.00 95 1018.9
20260902063058 71 0 0.0 0.0 0.00 0.00 0.00 95 1019.0
20260902061624 71 0 0.0 0.0 0.00 0.00 0.00 95 1019.0
20260902060106 71 0 0.0 1.0 0.00 0.00 0.00 95 1018.9
20260902054604 71 0 0.0 0.0 0.00 0.00 0.00 95 1018.9